Погода в Дахабе

Египет     28°29′37″N   34°30′17″E
темп.,
°C
ветер,
м/с
пор.,
м/с
влажн.,
%
обл.,
%
осадки,
мм/ч
давл.,
гПа
погр.,
м
20 апреля, вт
вт2023:00+28сз2229100 0.0 101111
02:00+28ссз2228100 0.0 101011
05:00+28з2228100 0.0 101011
08:00+30ю2227100 0.0 1011268
11:00+30ююв23289 0.0 1011486
14:00+30ю4631100 0.0 1009525
17:00+29ююз3431100 0.0 1009224
20:00+29с44281 0.0 101131
21 апреля, ср
ср2123:00+27ссз44375 0.0 101232
02:00+25с79439 0.0 1011108
05:00+24с79440 0.0 1011118
08:00+28с67335 0.0 1012335
11:00+31ссв66285 0.0 1011549
14:00+33св672760 0.0 10091081
17:00+32ссв8928100 0.1 1009478
20:00+28с7930100 0.1 1012219
22 апреля, чт
чт2223:00+25ссз7833100 0.0 1013135
02:00+24с7836100 0.0 1012137
05:00+23с78365 0.0 1012123
08:00+27с89305 0.0 1013447
11:00+31ссв77250 0.0 1012602
14:00+32ссв99213 0.0 1010871
17:00+31с1113210 0.0 1010722
20:00+26ссз67280 0.0 101389
23 апреля, пт
пт2323:00+24ссз67310 0.0 101387
02:00+23ссз67310 0.0 101284
05:00+23ссз67290 0.0 101292
08:00+26с78250 0.0 1012460
11:00+30с782226 0.0 1011581
14:00+32ссв77220 0.0 1009998
17:00+31с89210 0.0 1008690
20:00+28ссз55232 0.0 101039
24 апреля, сб
сб2423:00+26сз542466 0.0 101029
02:00+25сз54264 0.0 100827
05:00+25ссз442778 0.0 100823
08:00+28с452582 0.0 1008387
11:00+29всв442983 0.0 1008772
14:00+29вюв2229100 0.0 1007515
17:00+28ююв12315 0.0 1006213
20:00+26ссв113140 0.0 100811